Location: Friaudour
(46.0460°N, 1.2873°E)
Time: 08:44:09
(UTC+00:00)

CZ-4B R/B - Pass Details

Date: 14 July 2020
Orbit: 702 x 803 km, 98.9° (Epoch: 14 August)

Event Time Altitude Azimuth Distance (km) Brightness Sun altitude
Rises 02:18:39 0° 12° (NNE) 3,252 8.1 -15.5°
Reaches altitude 10° 02:21:00 10° 10° (N) 2,306 7.1 -15.2°
Maximum altitude 02:26:02 69° 288° (WNW) 800 3.5 -14.8°
Enters shadow 02:29:11 22° 210° (SSW) 1,563 4.5 -14.4°
